| time (UTC) | temp F | wind direction | speed MPH | gust MPH | rain 1hr in | rain 24hr in | rain mn in | humidity % | barometer mb |
| 20260504003222 | 60 | 0 | 0.0 | 0.0 | 0.00 | 0.00 | 0.00 | 33 | 1014.1 |
| 20260504001522 | 60 | 0 | 0.0 | 0.0 | 0.00 | 0.00 | 0.00 | 33 | 1014.3 |
| 20260503235546 | 60 | 0 | 0.0 | 0.0 | 0.00 | 0.00 | 0.00 | 33 | 1014.6 |
| 20260503233916 | 60 | 0 | 0.0 | 0.0 | 0.00 | 0.00 | 0.00 | 33 | 1014.6 |
| 20260503232103 | 60 | 0 | 0.0 | 0.0 | 0.00 | 0.00 | 0.00 | 33 | 1014.7 |
| 20260503230211 | 60 | 0 | 0.0 | 0.0 | 0.00 | 0.00 | 0.00 | 34 | 1014.7 |
| 20260503224518 | 60 | 0 | 0.0 | 0.0 | 0.00 | 0.00 | 0.00 | 34 | 1014.8 |
| 20260503222821 | 60 | 0 | 0.0 | 0.0 | 0.00 | 0.00 | 0.00 | 34 | 1014.8 |
| 20260503221001 | 61 | 0 | 0.0 | 0.0 | 0.00 | 0.00 | 0.00 | 33 | 1014.8 |
| 20260503215200 | 61 | 0 | 0.0 | 0.0 | 0.00 | 0.00 | 0.00 | 33 | 1014.9 |
| 20260503213233 | 62 | 0 | 0.0 | 0.0 | 0.00 | 0.00 | 0.00 | 32 | 1014.9 |
| 20260503211351 | 62 | 0 | 0.0 | 0.0 | 0.00 | 0.00 | 0.00 | 32 | 1014.8 |
| 20260503205606 | 62 | 0 | 0.0 | 0.0 | 0.00 | 0.00 | 0.00 | 30 | 1015.0 |
| 20260503203915 | 63 | 0 | 0.0 | 0.0 | 0.00 | 0.00 | 0.00 | 29 | 1015.0 |
| 20260503202101 | 63 | 0 | 0.0 | 0.0 | 0.00 | 0.00 | 0.00 | 29 | 1015.1 |
| 20260503200336 | 63 | 0 | 0.0 | 0.0 | 0.00 | 0.00 | 0.00 | 28 | 1015.2 |
| 20260503194348 | 64 | 0 | 0.0 | 0.0 | 0.00 | 0.00 | 0.00 | 27 | 1015.4 |
| 20260503192453 | 64 | 0 | 0.0 | 0.0 | 0.00 | 0.00 | 0.00 | 27 | 1015.4 |
| 20260503190701 | 63 | 0 | 0.0 | 0.0 | 0.00 | 0.00 | 0.00 | 27 | 1015.2 |
| 20260503184756 | 64 | 0 | 0.0 | 0.0 | 0.00 | 0.00 | 0.00 | 25 | 1015.1 |
| 20260503183116 | 65 | 0 | 0.0 | 0.0 | 0.00 | 0.00 | 0.00 | 24 | 1014.9 |
| 20260503181151 | 67 | 0 | 0.0 | 0.0 | 0.00 | 0.00 | 0.00 | 22 | 1014.9 |
| 20260503175353 | 69 | 0 | 0.0 | 0.0 | 0.00 | 0.00 | 0.00 | 19 | 1014.9 |
| 20260503173546 | 71 | 0 | 0.0 | 0.0 | 0.00 | 0.00 | 0.00 | 18 | 1014.7 |
| 20260503171805 | 71 | 0 | 0.0 | 0.0 | 0.00 | 0.00 | 0.00 | 17 | 1014.7 |
| 20260503170120 | 70 | 0 | 0.0 | 0.0 | 0.00 | 0.00 | 0.00 | 19 | 1014.8 |
| 20260503130811 | 76 | 0 | 0.0 | 0.0 | 0.00 | 0.00 | 0.00 | 21 | 1016.0 |
| 20260503080221 | 65 | 0 | 0.0 | 0.0 | 0.00 | 0.00 | 0.00 | 28 | 1018.1 |
| 20260503072559 | 63 | 0 | 0.0 | 0.0 | 0.00 | 0.00 | 0.00 | 30 | 1018.1 |
| 20260503070811 | 63 | 0 | 0.0 | 0.0 | 0.00 | 0.00 | 0.00 | 30 | 1018.1 |
| 20260503053844 | 60 | 0 | 0.0 | 0.0 | 0.00 | 0.00 | 0.00 | 32 | 1018.2 |
| 20260503051956 | 58 | 0 | 0.0 | 0.0 | 0.00 | 0.00 | 0.00 | 34 | 1018.1 |
| 20260503050156 | 57 | 0 | 0.0 | 0.0 | 0.00 | 0.00 | 0.00 | 36 | 1018.2 |
| 20260503044520 | 56 | 0 | 0.0 | 0.0 | 0.00 | 0.00 | 0.00 | 37 | 1018.0 |
| 20260503042736 | 55 | 0 | 0.0 | 0.0 | 0.00 | 0.00 | 0.00 | 37 | 1017.9 |
| 20260503040936 | 55 | 0 | 0.0 | 0.0 | 0.00 | 0.00 | 0.00 | 38 | 1018.0 |
| 20260503035251 | 54 | 0 | 0.0 | 0.0 | 0.00 | 0.00 | 0.00 | 38 | 1018.0 |
| 20260503033444 | 53 | 0 | 0.0 | 0.0 | 0.00 | 0.00 | 0.00 | 38 | 1018.0 |
| 20260503031746 | 53 | 0 | 0.0 | 0.0 | 0.00 | 0.00 | 0.00 | 38 | 1018.0 |
| 20260503025913 | 53 | 0 | 0.0 | 0.0 | 0.00 | 0.00 | 0.00 | 37 | 1018.0 |
| 20260503023941 | 55 | 0 | 0.0 | 0.0 | 0.00 | 0.00 | 0.00 | 36 | 1018.1 |
| 20260503022306 | 55 | 0 | 0.0 | 0.0 | 0.00 | 0.00 | 0.00 | 36 | 1018.1 |
| 20260503020511 | 55 | 0 | 0.0 | 0.0 | 0.00 | 0.00 | 0.00 | 36 | 1018.1 |
| 20260503014641 | 54 | 0 | 0.0 | 0.0 | 0.00 | 0.00 | 0.00 | 36 | 1018.3 |
| 20260503012913 | 55 | 0 | 0.0 | 0.0 | 0.00 | 0.00 | 0.00 | 36 | 1018.3 |
| 20260503011116 | 55 | 0 | 0.0 | 0.0 | 0.00 | 0.00 | 0.00 | 36 | 1018.3 |
| 20260503005311 | 55 | 0 | 0.0 | 0.0 | 0.00 | 0.00 | 0.00 | 36 | 1018.4 |